Location: Alice Springs
(23.6980°S, 133.8807°E)
Time: 10:51:44
(UTC+09:30)

X-37B - Visible Passes

Search period start: 17 June 2021 00:00
Search period end: 27 June 2021 00:00
Orbit: 386 x 389 km, 45.0° (Epoch: 10 June)

Date Brightness Start Highest point End Pass type
(mag) Time Alt. Az. Time Alt. Az. Time Alt. Az.
17 Jun 2.2 18:21:19 10° SSW 18:23:45 19° SE 18:26:11 10° E visible
17 Jun 3.3 19:57:36 10° WSW 19:59:01 20° W 19:59:01 20° W visible
18 Jun 0.8 18:58:54 10° SW 19:02:07 72° NW 19:05:09 11° NE visible
19 Jun 4.0 19:39:09 10° WNW 19:40:06 11° NW 19:41:05 10° NNW visible
20 Jun 3.0 18:39:09 10° WSW 18:41:54 26° NW 18:44:38 10° NNE visible
22 Jun 4.4 18:20:45 10° WNW 18:21:38 11° NW 18:22:30 10° NNW visible
24 Jun 4.4 06:39:18 10° NE 06:39:58 10° NE 06:40:38 10° ENE visible
26 Jun 3.0 06:17:00 10° NNW 06:19:42 25° NE 06:22:25 10° ESE visible
